User: anonymous   Login
Location: Unspecified
(0.0000°N, 0.0000°E)
Time: 17:14:54
(UTC+00:00)
Language:

GALILEO 12 (269) - Orbit

View from above orbital plane
View from above orbital plane
View from above satellite
View from above satellite

Ground track
Ground track

The orbit data is extracted from the following two-line orbital elements,

1 41174U 15079A   17228.24064256  .00000035  00000-0  00000+0 0  9995
2 41174  54.9221 190.0581 0006228 287.4305  72.4708  1.70473199 10340
Epoch (UTC): 16 August 2017 05:46:31
Eccentricity: 0.0006228
inclination: 54.9221°
perigee height: 23203 km
apogee height: 23240 km
right ascension of ascending node: 190.0581°
argument of perigee: 287.4305°
revolutions per day: 1.70473199
mean anomaly at epoch: 72.4708°
orbit number at epoch: 1034

The dashed part of the orbit path shows where the satellite is in the earth's shadow,  

DLR